Open Text Operating Margin 2010-2024 | OTEX

Current and historical operating margin for Open Text (OTEX) over the last 10 years. The current operating profit margin for Open Text as of March 31, 2024 is 16.78%.
Open Text Operating Margin Historical Data
Date TTM Revenue TTM Operating Income Operating Margin
2024-03-31 $5.90B $0.82B 13.82%
2023-12-31 $5.70B $0.65B 11.45%
2023-09-30 $5.06B $0.58B 11.53%
2023-06-30 $4.49B $0.52B 11.51%
2023-03-31 $3.90B $0.53B 13.68%
2022-12-31 $3.53B $0.60B 17.01%
2022-09-30 $3.51B $0.61B 17.34%
2022-06-30 $3.49B $0.65B 18.49%
2022-03-31 $3.49B $0.68B 19.51%
2021-12-31 $3.44B $0.70B 20.37%
2021-09-30 $3.42B $0.74B 21.70%
2021-06-30 $3.39B $0.74B 21.85%
2021-03-31 $3.32B $0.66B 19.85%
2020-12-31 $3.30B $0.60B 18.23%
2020-09-30 $3.22B $0.55B 17.18%
2020-06-30 $3.11B $0.50B 16.20%
2020-03-31 $3.03B $0.57B 18.84%
2019-12-31 $2.94B $0.61B 20.85%
2019-09-30 $2.90B $0.60B 20.74%
2019-06-30 $2.87B $0.57B 19.77%
2019-03-31 $2.88B $0.56B 19.41%
2018-12-31 $2.84B $0.53B 18.47%
2018-09-30 $2.84B $0.52B 18.23%
2018-06-30 $2.82B $0.51B 18.01%
2018-03-31 $2.73B $0.46B 17.03%
2017-12-31 $2.63B $0.43B 16.19%
2017-09-30 $2.44B $0.37B 14.99%
2017-06-30 $2.29B $0.35B 15.36%
2017-03-31 $2.11B $0.34B 16.05%
2016-12-31 $1.96B $0.36B 18.52%
2016-09-30 $1.88B $0.37B 19.45%
2016-06-30 $1.83B $0.37B 20.16%
2016-03-31 $1.82B $0.36B 19.63%
2015-12-31 $1.83B $0.32B 17.59%
2015-09-30 $1.83B $0.32B 17.61%
2015-06-30 $1.85B $0.35B 18.89%
2015-03-31 $1.86B $0.38B 20.12%
2014-12-31 $1.86B $0.39B 20.93%
2014-09-30 $1.76B $0.35B 20.06%
2014-06-30 $1.63B $0.30B 18.52%
2014-03-31 $1.48B $0.24B 16.37%
2013-12-31 $1.37B $0.22B 15.73%
2013-09-30 $1.36B $0.21B 15.36%
2013-06-30 $1.36B $0.20B 14.45%
2013-03-31 $1.32B $0.19B 14.22%
2012-12-31 $1.28B $0.17B 13.64%
2012-09-30 $1.25B $0.16B 13.01%
2012-06-30 $1.21B $0.15B 12.34%
2012-03-31 $1.19B $0.14B 11.72%
2011-12-31 $1.16B $0.14B 12.19%
2011-09-30 $1.10B $0.14B 12.87%
2011-06-30 $1.03B $0.15B 14.53%
2011-03-31 $0.99B $0.13B 12.87%
2010-12-31 $0.94B $0.13B 13.98%
2010-09-30 $0.92B $0.12B 13.18%
2010-06-30 $0.91B $0.11B 11.95%
2010-03-31 $0.88B $0.14B 15.77%
2009-12-31 $0.85B $0.13B 14.99%
Sector Industry Market Cap Revenue
Computer and Technology Computer Software $8.205B $4.485B
Open Text Corporation is engaged in development of innovative intranet, extranet and e-Business applications. Since creating one of the first search engines to index the World Wide Web, the company has remained at the forefront of Internet-based technologies. Open Text solutions allow individuals, teams, organizations, and global trading communities to collaborate on projects, share ideas and accelerate innovation to the fastest possible speed. Open Text Corporation is headquartered in Waterloo, Canada.
Stock Name Country Market Cap PE Ratio
Microsoft (MSFT) United States $3197.081B 37.24
Oracle (ORCL) United States $337.818B 27.50
Salesforce (CRM) United States $263.577B 44.06
Adobe (ADBE) United States $212.993B 35.61
Intuit (INTU) United States $169.682B 52.87
Synopsys (SNPS) United States $89.579B 62.03
Cadence Design Systems (CDNS) United States $80.084B 76.24
Dassault Systemes SA (DASTY) France $56.134B 36.47
Autodesk (ADSK) United States $46.304B 45.24
MicroStrategy (MSTR) United States $29.885B 0.00
ANSYS (ANSS) United States $28.906B 53.49
PTC (PTC) United States $21.905B 58.10
SS&C Technologies Holdings (SSNC) United States $15.290B 14.48
Manhattan Associates (MANH) United States $14.046B 74.55
Descartes Systems Group (DSGX) Canada $8.546B 74.80
Trend Micro (TMICY) Japan $6.572B 47.60
Pegasystems (PEGA) United States $5.096B 45.06
CommVault Systems (CVLT) United States $4.800B 78.44
Blackbaud (BLKB) United States $4.095B 35.25
ACI Worldwide (ACIW) United States $3.735B 17.89
Progress Software (PRGS) United States $2.174B 13.82
Verint Systems (VRNT) United States $1.911B 17.81
Sapiens (SPNS) Israel $1.880B 25.64
BlackBerry (BB) Canada $1.700B 0.00
PROS Holdings (PRO) United States $1.465B 0.00
Simulations Plus (SLP) United States $0.996B 73.28
Rand Worldwide (RWWI) United States $0.652B 0.00
Magic Software Enterprises (MGIC) Israel $0.522B 11.08
American Software (AMSWA) United States $0.355B 29.72
Canaan (CAN) China $0.245B 0.00
OptimizeRx (OPRX) United States $0.236B 0.00
Rigetti Computing (RGTI) United States $0.184B 0.00
Icad Inc (ICAD) United States $0.042B 0.00
Neonode (NEON) Sweden $0.037B 0.00
NetSol Technologies (NTWK) United States $0.030B 0.00
Smith Micro Software (SMSI) United States $0.024B 0.00
Hanryu Holdings (HRYU) South Korea $0.021B 0.00
Wetouch Technology (WETH) $0.020B 0.00
GSE Systems (GVP) United States $0.011B 0.00
SAP SE (SAP) Germany $0.000B 49.97